TimeCST,TemperatureF,Dew PointF,Humidity,Sea Level PressureIn,VisibilityMPH,Wind Direction,Wind SpeedMPH,Gust SpeedMPH,PrecipitationIn,Events,Conditions,WindDirDegrees,DateUTC
12:44 AM,46.4,39.2,76,29.86,10.0,NNW,9.2,-,N/A,,Overcast,340,2012-12-10 06:44:00
12:53 AM,46.9,39.0,74,29.86,10.0,NNW,11.5,-,N/A,,Overcast,340,2012-12-10 06:53:00
1:53 AM,45.0,34.0,65,29.87,10.0,NNW,10.4,19.6,N/A,,Overcast,340,2012-12-10 07:53:00
2:53 AM,43.0,34.0,71,29.86,10.0,NNW,8.1,-,N/A,,Clear,340,2012-12-10 08:53:00
3:23 AM,42.8,35.6,76,29.86,10.0,North,4.6,-,N/A,,Mostly Cloudy,360,2012-12-10 09:23:00
3:31 AM,42.8,33.8,70,29.86,10.0,NNW,10.4,-,N/A,,Scattered Clouds,340,2012-12-10 09:31:00
3:53 AM,41.0,33.1,73,29.86,10.0,North,11.5,-,N/A,,Clear,360,2012-12-10 09:53:00
4:53 AM,37.9,28.9,70,29.88,10.0,NW,11.5,-,N/A,,Clear,310,2012-12-10 10:53:00
5:53 AM,35.1,26.1,70,29.90,10.0,NW,9.2,-,N/A,,Clear,320,2012-12-10 11:53:00
6:53 AM,33.1,24.1,70,29.93,10.0,NW,10.4,19.6,N/A,,Partly Cloudy,320,2012-12-10 12:53:00
7:53 AM,32.0,23.0,69,29.96,10.0,NW,13.8,-,N/A,,Overcast,320,2012-12-10 13:53:00
8:53 AM,32.0,23.0,69,29.96,10.0,NW,15.0,-,N/A,,Overcast,310,2012-12-10 14:53:00
9:53 AM,33.1,23.0,66,29.97,10.0,NW,13.8,-,N/A,,Overcast,320,2012-12-10 15:53:00
10:53 AM,33.1,23.0,66,29.98,10.0,NW,13.8,20.7,N/A,,Overcast,320,2012-12-10 16:53:00
11:53 AM,33.1,21.9,64,29.96,10.0,NW,11.5,-,N/A,,Overcast,310,2012-12-10 17:53:00
12:51 PM,33.8,23.0,65,29.93,10.0,NNW,13.8,-,N/A,,Overcast,330,2012-12-10 18:51:00
12:53 PM,34.0,23.0,64,29.95,10.0,NNW,13.8,-,N/A,,Overcast,330,2012-12-10 18:53:00
1:03 PM,35.6,24.8,65,29.94,10.0,NNW,11.5,-,N/A,,Overcast,330,2012-12-10 19:03:00
1:10 PM,33.8,23.0,65,29.94,10.0,NNW,12.7,-,N/A,,Overcast,330,2012-12-10 19:10:00
1:31 PM,35.6,23.0,60,29.94,10.0,NNW,15.0,-,N/A,,Mostly Cloudy,340,2012-12-10 19:31:00
1:53 PM,36.0,23.0,59,29.95,10.0,NW,12.7,-,N/A,,Mostly Cloudy,310,2012-12-10 19:53:00
2:53 PM,37.9,23.0,55,29.96,10.0,WNW,12.7,-,N/A,,Mostly Cloudy,300,2012-12-10 20:53:00
3:53 PM,35.1,23.0,61,30.00,10.0,NNW,12.7,-,N/A,,Overcast,330,2012-12-10 21:53:00
4:53 PM,34.0,23.0,64,30.02,10.0,North,16.1,-,N/A,,Overcast,350,2012-12-10 22:53:00
5:53 PM,33.1,21.9,64,30.05,10.0,NNW,13.8,-,N/A,,Overcast,330,2012-12-10 23:53:00
6:53 PM,30.9,21.9,69,30.06,10.0,NNW,8.1,-,N/A,,Clear,340,2012-12-11 00:53:00
7:53 PM,30.0,21.0,69,30.08,10.0,NW,5.8,-,N/A,,Clear,320,2012-12-11 01:53:00
8:53 PM,28.9,21.0,72,30.09,10.0,NW,6.9,-,N/A,,Clear,310,2012-12-11 02:53:00
9:53 PM,28.0,19.9,72,30.11,10.0,NW,3.5,-,N/A,,Clear,310,2012-12-11 03:53:00
10:23 PM,26.6,19.4,74,30.09,10.0,Calm,Calm,-,N/A,,Mostly Cloudy,0,2012-12-11 04:23:00
10:53 PM,28.0,19.9,72,30.12,10.0,Calm,Calm,-,N/A,,Mostly Cloudy,0,2012-12-11 04:53:00
11:14 PM,26.6,21.2,80,30.10,10.0,Calm,Calm,-,N/A,,Scattered Clouds,0,2012-12-11 05:14:00
11:33 PM,26.6,19.4,74,30.10,10.0,WNW,3.5,-,N/A,,Mostly Cloudy,300,2012-12-11 05:33:00
11:40 PM,24.8,19.4,80,30.11,10.0,WNW,4.6,-,N/A,,Scattered Clouds,290,2012-12-11 05:40:00
11:53 PM,26.1,19.9,78,30.14,10.0,WNW,3.5,-,N/A,,Mostly Cloudy,290,2012-12-11 05:53:00